This is the latest recevied weather packets stored in our database for station/object KL4TQ. If no packets are shown the sender has not sent any weather packets the latest 10 day(s).
| Time | Temp. | Humidity | Pressure | Rain* | Wind** | Luminosity | Snow |
|---|---|---|---|---|---|---|---|
| 1777711268 | 5.56° C | 64% | 857 hPa | 0 mm | - | 0 W/m² | - |
| 1777710968 | 5.56° C | 64% | 857 hPa | 0 mm | - | 0 W/m² | - |
| 1777710668 | 5.56° C | 64% | 857 hPa | 0 mm | - | 0 W/m² | - |
| 1777710368 | 6.11° C | 64% | 857 hPa | 0 mm | - | 0 W/m² | - |
| 1777710068 | 6.11° C | 63% | 857 hPa | 0 mm | - | 0 W/m² | - |
| 1777709768 | 6.11° C | 63% | 857 hPa | 0 mm | - | 0 W/m² | - |
| 1777709468 | 6.11° C | 63% | 857 hPa | 0 mm | - | 0 W/m² | - |
| 1777709168 | 6.11° C | 63% | 857 hPa | 0.25 mm | - | 0 W/m² | - |
| 1777708868 | 6.11° C | 62% | 857 hPa | 0 mm | - | 0 W/m² | - |
| 1777708569 | 6.11° C | 62% | 857 hPa | 0 mm | - | 0 W/m² | - |
| 1777708268 | 6.11° C | 60% | 857 hPa | 0.51 mm | - | 0 W/m² | - |
| 1777707968 | 6.11° C | 61% | 857 hPa | 0 mm | - | 0 W/m² | - |
| 1777707668 | 6.11° C | 60% | 857 hPa | 0 mm | - | 0 W/m² | - |
| 1777707368 | 6.11° C | 62% | 857 hPa | 0.25 mm | - | 0 W/m² | - |
| 1777707068 | 6.11° C | 61% | 857 hPa | 0 mm | - | 0 W/m² | - |
| 1777706769 | 6.11° C | 61% | 857 hPa | 0 mm | - | 0 W/m² | - |
| 1777706468 | 6.11° C | 61% | 857 hPa | 0.25 mm | - | 0 W/m² | - |
| 1777706168 | 6.11° C | 60% | 857 hPa | 0 mm | - | 0 W/m² | - |
| 1777705868 | 6.11° C | 60% | 857 hPa | 0 mm | - | 0 W/m² | - |
| 1777705568 | 6.11° C | 62% | 857 hPa | 0 mm | - | 0 W/m² | - |
| 1777705268 | 6.11° C | 59% | 857 hPa | 0 mm | - | 0 W/m² | - |
| 1777704968 | 6.67° C | 58% | 857 hPa | 0 mm | - | 0 W/m² | - |
| 1777704669 | 6.67° C | 58% | 857 hPa | 0.51 mm | - | 0 W/m² | - |
| 1777704368 | 6.67° C | 57% | 857 hPa | 0.25 mm | - | 0 W/m² | - |
| 1777704069 | 6.67° C | 57% | 857 hPa | 0 mm | - | 0 W/m² | - |
* Rain latest hour (hover to see other rain measurements)
** Current wind speed in m/s (hover to see current wind gust speed)